Weather History for KSKF - October, 2012

Change the Weather History Date:

Tuesday, October 23, 2012

  Actual Average (KSAT) Record (KSAT)
Temperature  
Mean Temperature 78 °F 69 °F  
Max Temperature 86 °F 80 °F 93 °F (1988)
Min Temperature 71 °F 58 °F 36 °F (1996)
Degree Days  
Heating Degree Days 0 1  
Month to date heating degree days 12  
Since 1 July heating degree days 14  
Cooling Degree Days 13 6  
Month to date cooling degree days 181  
Year to date cooling degree days 3015  
Growing Degree Days 28 (Base 50)    
Moisture  
Dew Point 69 °F    
Average Humidity 81    
Maximum Humidity 94    
Minimum Humidity 53    
Precipitation  
Precipitation 0.00 in 0.14 in 4.62 in (1914)
Month to date precipitation 3.18  
Year to date precipitation 27.15  
Snow  
Snow 0.00 in - - ()
Month to date snowfall  
Since 1 July snowfall  
Since 1 September snowfall  
Snow Depth -    
Sea Level Pressure  
Sea Level Pressure 29.92 in    
Wind  
Wind Speed 9 mph (SE)    
Max Wind Speed 15 mph    
Max Gust Speed -    
Visibility 10 miles    
Events Rain    
T = Trace of Precipitation, MM = Missing Value Source: NWS Daily Summary

Daily Weather History Graph

Daily Weather History Graph

Search for Another Location

Airport or City:

Trip Planner

Search our weather history database for the weather conditions in past years. The results will help you decide how hot, cold, wet, or windy it might be!

Date:

Astronomy

Oct. 23, 2012 Rise Set
Actual Time 7:41 AM CDT 6:55 PM CDT
Civil Twilight 7:17 AM CDT 7:19 PM CDT
Nautical Twilight 6:49 AM CDT 7:47 PM CDT
Astronomical Twilight 6:21 AM CDT 8:15 PM CDT
Moon 3:16 PM CDT (10/23) 2:01 AM CDT (10/23)
Length of Visible Light 12h 02m
Length of Day
11h 14m
Waxing Gibbous, 67% of the Moon is Illuminated
Oct 23
Waxing Gibbous
Oct 29
Full
Nov 6
Last Quarter
Nov 13
New
Nov 20
First Quarter

Hourly Weather History & Observations

Time (CDT) Temp. Heat Index Dew Point Humidity Pressure Visibility Wind Dir Wind Speed Gust Speed Precip Events Conditions
12:55 AM 74.7 °F - 70.0 °F 85% 29.92 in 10.0 mi SSE 10.4 mph - N/A   Overcast
1:30 AM 73.4 °F - 69.8 °F 88% 29.91 in 10.0 mi SE 11.5 mph - N/A   Overcast
1:55 AM 73.6 °F - 69.6 °F 87% 29.91 in 10.0 mi SE 10.4 mph - N/A   Overcast
2:15 AM 73.4 °F - 69.8 °F 88% 29.91 in 10.0 mi SSE 10.4 mph - N/A   Overcast
2:16 AM 73.4 °F - 69.8 °F 88% 29.91 in 10.0 mi SSE 10.4 mph - N/A   Overcast
2:32 AM 73.4 °F - 69.8 °F 88% 29.91 in 10.0 mi SSE 9.2 mph - N/A   Overcast
2:42 AM 73.4 °F - 69.8 °F 88% 29.91 in 10.0 mi SE 9.2 mph - N/A   Mostly Cloudy
2:51 AM 73.4 °F - 69.8 °F 88% 29.91 in 10.0 mi SE 8.1 mph - N/A   Mostly Cloudy
2:54 AM 73.4 °F - 69.8 °F 88% 29.91 in 10.0 mi SE 9.2 mph - N/A   Mostly Cloudy
2:55 AM 72.5 °F - 69.4 °F 90% 29.91 in 10.0 mi SE 8.1 mph - N/A   Mostly Cloudy
3:00 AM 73.4 °F - 69.8 °F 88% 29.91 in 10.0 mi SSE 9.2 mph - N/A   Mostly Cloudy
3:01 AM 73.4 °F - 69.8 °F 88% 29.91 in 10.0 mi SSE 9.2 mph - N/A   Mostly Cloudy
3:04 AM 73.4 °F - 69.8 °F 88% 29.91 in 10.0 mi SE 10.4 mph - N/A   Mostly Cloudy
3:12 AM 73.4 °F - 69.8 °F 88% 29.91 in 10.0 mi SE 8.1 mph - N/A   Overcast
3:55 AM 72.1 °F - 69.1 °F 90% 29.91 in 10.0 mi SSE 6.9 mph - N/A   Mostly Cloudy
3:59 AM 71.6 °F - 69.8 °F 94% 29.91 in 10.0 mi SSE 6.9 mph - N/A   Mostly Cloudy
4:15 AM 71.6 °F - 69.8 °F 94% 29.90 in 10.0 mi SSE 8.1 mph - N/A   Overcast
4:39 AM 71.6 °F - 69.8 °F 94% 29.90 in 10.0 mi SSE 5.8 mph - N/A   Overcast
4:55 AM 72.1 °F - 69.4 °F 91% 29.90 in 10.0 mi SE 4.6 mph - N/A   Overcast
5:55 AM 72.3 °F - 69.3 °F 90% 29.91 in 10.0 mi SE 5.8 mph - N/A   Overcast
6:04 AM 71.6 °F - 69.8 °F 94% 29.91 in 10.0 mi SE 6.9 mph - N/A   Overcast
6:19 AM 71.6 °F - 69.8 °F 94% 29.92 in 10.0 mi SE 5.8 mph - N/A   Overcast
6:20 AM 71.6 °F - 69.8 °F 94% 29.92 in 10.0 mi SE 5.8 mph - N/A   Overcast
6:55 AM 71.4 °F - 68.7 °F 91% 29.92 in 10.0 mi SE 6.9 mph - N/A   Mostly Cloudy
7:15 AM 71.6 °F - 68.0 °F 88% 29.92 in 10.0 mi SE 4.6 mph - N/A   Mostly Cloudy
7:25 AM 71.6 °F - 69.8 °F 94% 29.92 in 10.0 mi SE 4.6 mph - N/A   Overcast
7:53 AM 71.6 °F - 68.0 °F 88% 29.93 in 10.0 mi ESE 3.5 mph - N/A   Overcast
7:55 AM 71.1 °F - 68.9 °F 93% 29.93 in 10.0 mi Calm Calm - N/A   Overcast
7:59 AM 71.6 °F - 69.8 °F 94% 29.93 in 10.0 mi Calm Calm - N/A   Overcast
8:05 AM 71.6 °F - 69.8 °F 94% 29.94 in 10.0 mi Calm Calm - N/A   Overcast
8:07 AM 71.6 °F - 69.8 °F 94% 29.94 in 10.0 mi Calm Calm - N/A   Overcast
8:43 AM 71.6 °F - 69.8 °F 94% 29.95 in 10.0 mi SE 3.5 mph - N/A   Overcast
8:45 AM 71.6 °F - 69.8 °F 94% 29.95 in 10.0 mi SE 4.6 mph - N/A   Overcast
8:51 AM 71.6 °F - 69.8 °F 94% 29.95 in 10.0 mi SE 6.9 mph - N/A   Overcast
8:55 AM 72.5 °F - 69.4 °F 90% 29.95 in 10.0 mi SE 6.9 mph - N/A   Overcast
9:44 AM 75.2 °F - 69.8 °F 83% 29.96 in 10.0 mi SE 6.9 mph - N/A   Scattered Clouds
9:55 AM 74.8 °F - 70.0 °F 85% 29.96 in 10.0 mi SSE 8.1 mph - N/A   Scattered Clouds
10:10 AM 75.2 °F - 69.8 °F 83% 29.96 in 10.0 mi SSE 9.2 mph - N/A   Overcast
10:17 AM 75.2 °F - 69.8 °F 83% 29.96 in 10.0 mi SSE 11.5 mph - N/A   Overcast
10:20 AM 75.2 °F - 69.8 °F 83% 29.96 in 10.0 mi SSE 6.9 mph - N/A   Overcast
10:21 AM 75.2 °F - 69.8 °F 83% 29.96 in 10.0 mi SSE 6.9 mph - N/A   Overcast
10:23 AM 75.2 °F - 69.8 °F 83% 29.96 in 10.0 mi SSE 8.1 mph - N/A   Overcast
10:39 AM 77.0 °F - 69.8 °F 78% 29.96 in 10.0 mi SSE 9.2 mph - N/A   Overcast
10:55 AM 76.3 °F - 70.2 °F 81% 29.96 in 10.0 mi SE 5.8 mph - N/A   Overcast
11:20 AM 77.0 °F - 69.8 °F 78% 29.95 in 10.0 mi South 9.2 mph - N/A   Overcast
11:21 AM 77.0 °F - 69.8 °F 78% 29.94 in 10.0 mi South 10.4 mph - N/A   Overcast
11:29 AM 78.8 °F - 69.8 °F 74% 29.94 in 10.0 mi SSE 13.8 mph - N/A   Overcast
11:32 AM 78.8 °F - 69.8 °F 74% 29.94 in 10.0 mi SSE 12.7 mph - N/A   Overcast
11:36 AM 78.8 °F - 69.8 °F 74% 29.94 in 10.0 mi South 12.7 mph - N/A   Overcast
11:55 AM 79.0 °F - 70.2 °F 74% 29.94 in 10.0 mi South 10.4 mph - N/A   Overcast
12:08 PM 78.8 °F - 69.8 °F 74% 29.94 in 10.0 mi SSE 8.1 mph - N/A   Overcast
12:10 PM 78.8 °F - 69.8 °F 74% 29.94 in 10.0 mi SSE 8.1 mph - N/A   Overcast
12:16 PM 78.8 °F - 69.8 °F 74% 29.94 in 10.0 mi SSE 9.2 mph - N/A   Overcast
12:36 PM 78.8 °F - 69.8 °F 74% 29.94 in 10.0 mi SSE 8.1 mph - N/A   Overcast
12:55 PM 80.2 °F 83.3 °F 69.6 °F 70% 29.94 in 10.0 mi South 8.1 mph - N/A   Overcast
1:05 PM 80.6 °F 83.9 °F 69.8 °F 70% 29.93 in 10.0 mi SSE 9.2 mph - N/A Rain Light Rain
1:55 PM 81.7 °F 85.1 °F 69.3 °F 66% 29.91 in 10.0 mi SSE 9.2 mph - N/A   Mostly Cloudy
2:55 PM 83.3 °F 86.6 °F 68.7 °F 61% 29.89 in 10.0 mi South 9.2 mph - N/A   Mostly Cloudy
3:55 PM 85.3 °F 88.8 °F 68.5 °F 57% 29.87 in 10.0 mi South 8.1 mph - N/A   Scattered Clouds
4:55 PM 85.6 °F 88.2 °F 66.9 °F 53% 29.86 in 10.0 mi SE 11.5 mph - N/A   Partly Cloudy
5:55 PM 84.6 °F 86.8 °F 66.4 °F 54% 29.86 in 10.0 mi SSE 10.4 mph - N/A   Scattered Clouds
6:55 PM 82.6 °F 85.3 °F 67.3 °F 60% 29.87 in 10.0 mi ESE 9.2 mph - N/A   Partly Cloudy
7:19 PM 82.4 °F 84.6 °F 66.2 °F 58% 29.88 in 10.0 mi ESE 9.2 mph - N/A   Scattered Clouds
7:22 PM 82.4 °F 84.6 °F 66.2 °F 58% 29.88 in 10.0 mi ESE 8.1 mph - N/A   Mostly Cloudy
7:54 PM 80.6 °F 82.7 °F 66.2 °F 61% 29.89 in 10.0 mi ESE 10.4 mph - N/A   Overcast
7:55 PM 81.3 °F 83.6 °F 66.9 °F 61% 29.89 in 10.0 mi ESE 10.4 mph - N/A   Overcast
8:24 PM 80.6 °F 83.2 °F 68.0 °F 65% 29.90 in 10.0 mi SE 13.8 mph - N/A   Scattered Clouds
8:55 PM 78.6 °F - 67.5 °F 68% 29.91 in 10.0 mi SE 15.0 mph - N/A   Partly Cloudy
9:55 PM 76.3 °F - 67.1 °F 73% 29.93 in 10.0 mi SE 11.5 mph - N/A   Clear
10:55 PM 74.7 °F - 67.1 °F 77% 29.94 in 10.0 mi SE 11.5 mph - N/A   Clear
11:55 PM 72.9 °F - 67.3 °F 83% 29.94 in 10.0 mi SSE 9.2 mph - N/A   Clear